星链-5968 (STARLINK-5968 )

导读

STARLINK-5968是美国太空探索技术公司(SpaceX)星链卫星互联网项目的一员,于2023年3月24日发射入轨,属于星链低轨星座组网卫星,服务全球宽带互联网接入,该卫星已在轨运行近3年,目前维持轨道运行,参与星链网络覆盖,助力服务民用通信、导航增强等领域的需求。

基本信息
目录编号:
56010
目录名称:
STARLINK-5968
国际标识:
2023-042AA
轨道中心:
EARTH
卫星名称:
星链-5968
卫星全名:
星链-5968 (STARLINK-5968 )
卫星状态:
在轨 (已飞行1178 天)
发射日期:
2023-03-24 UTC
国别 :
美国 (US)
星等 :
--
轨道信息
数据来源 国际轨道数据 AOE轨道数据
星历时间 2026-06-14T19:48:28+0800
10小时前
查看轨道信息
2026-06-13T06:00:00+0800
2天前
查看轨道信息
半长轴 6861.198km 6861.126km
偏心率 0.000138 0.000129
轨道倾角 43.002° 43.002°
近地点辐角 272.989° 275.964°
升交点赤经 232.950° 241.841°
平近点角 87.080° 50.815°
近地点 482.114km 482.103km
远地点 484.008km 483.875km
周期 94.267分钟 94.266分钟
每日圈数 15.275763 15.276002
详细信息
固有亮度:
5
最大亮度:
2.5
卫星平台:
Starlink v1.5
覆盖范围:
全球
运营商:
太空探索技术公司
运营商所在国:
美国
制造商(研发单位):
太空探索技术公司
制造商所在国:
美国
使用方式:
暂无
卫星简介
星链(Starlink)计划是由太空探索技术公司(SpaceX)提出的一个巨型低轨卫星互联网星座项目,计划在2019年至2024年间在太空搭建由约1.2万颗卫星组成的“星链”网络,其中1584颗将部署在地球上空550千米处的近地轨道,并从2020年开始工作。该卫星仍在工作。
2D轨道图
3D轨道图
轨道高度分析图
轨道倾角分析图
轨道综合分析图
查看轨道综合分析图